Kremmling, CO

6:42 PM MST on November 12, 2019 (GMT -0700)
Kremmling

Weather History for K20V - September, 2019

Change the Weather History Date:

Friday, September 6, 2019

  Actual Average Record
Temperature  
Mean Temperature 66 °F -  
Max Temperature 88 °F - 86 °F (2013)
Min Temperature 44 °F - 32 °F (2008)
Degree Days  
Heating Degree Days 0    
Month to date heating degree days 8  
Cooling Degree Days 1    
Month to date cooling degree days 4  
Growing Degree Days 16 (Base 50)    
Moisture  
Dew Point 47 °F    
Average Humidity 68    
Maximum Humidity 100    
Minimum Humidity 17    
Precipitation  
Precipitation 0.00 in - 0.36 in (2003)
Snow  
Snow 0.00 in - - ()
Snow Depth 0.00 in    
Sea Level Pressure  
Sea Level Pressure 30.42 in    
Wind  
Wind Speed 3 mph ()    
Max Wind Speed 16 mph    
Max Gust Speed 28 mph    
Visibility 9.9 miles    
Events Rain , Thunderstorm    
T = Trace of Precipitation, MM = Missing Value Source: Averaged Metar Reports

Daily Weather History Graph

Daily Weather History Graph

Search for Another Location

Airport or City:

Astronomy

Sep. 06, 2019 Rise Set
Actual Time 6:37 AM MDT 7:29 PM MDT
Civil Twilight 6:10 AM MDT 7:56 PM MDT
Nautical Twilight 5:37 AM MDT 8:29 PM MDT
Astronomical Twilight 5:03 AM MDT 9:03 PM MDT
Moon 2:49 PM MDT (9/6) No Moon Set
Length of Visible Light 13h 46m
Length of Day
12h 51m
First Quarter, 56% of the Moon is Illuminated
Sep 6
First Quarter
Sep 13
Full
Sep 21
Last Quarter
Sep 28
New
Oct 5
First Quarter

Hourly Weather History & Observations

Time (MDT) Temp. Dew Point Humidity Pressure Visibility Wind Dir Wind Speed Gust Speed Precip Events Conditions
12:06 AM 53.6 °F 50.0 °F 88% 30.49 in 10.0 mi Calm Calm - N/A   Clear
12:30 AM 53.6 °F 48.2 °F 82% 30.50 in 10.0 mi Calm Calm - N/A   Clear
1:06 AM 50.0 °F 48.2 °F 94% 30.51 in 10.0 mi Calm Calm - N/A   Clear
1:30 AM 50.0 °F 46.4 °F 87% 30.51 in 10.0 mi Calm Calm - N/A   Clear
1:48 AM 50.0 °F 46.4 °F 87% 30.51 in 10.0 mi Calm Calm - N/A   Clear
2:06 AM 48.2 °F 46.4 °F 93% 30.50 in 10.0 mi Calm Calm - N/A   Clear
2:30 AM 48.2 °F 46.4 °F 93% 30.49 in 10.0 mi Calm Calm - N/A   Clear
2:47 AM 48.2 °F 48.2 °F 100% 30.49 in 10.0 mi Calm Calm - N/A   Clear
3:06 AM 48.2 °F 46.4 °F 93% 30.49 in 10.0 mi Calm Calm - N/A   Clear
3:30 AM 44.6 °F 44.6 °F 100% 30.49 in 10.0 mi Calm Calm - N/A   Clear
3:48 AM 46.4 °F 46.4 °F 100% 30.49 in 10.0 mi Calm Calm - N/A   Clear
4:06 AM 44.6 °F 44.6 °F 100% 30.49 in 10.0 mi Calm Calm - N/A   Clear
4:30 AM 44.6 °F 44.6 °F 100% 30.49 in 10.0 mi Calm Calm - N/A   Clear
4:48 AM 44.6 °F 44.6 °F 100% 30.49 in 10.0 mi Calm Calm - N/A   Clear
5:06 AM 44.6 °F 44.6 °F 100% 30.49 in 10.0 mi Calm Calm - N/A   Clear
5:30 AM 44.6 °F 44.6 °F 100% 30.49 in 10.0 mi Calm Calm - N/A   Clear
5:48 AM 44.6 °F 44.6 °F 100% 30.49 in 10.0 mi Calm Calm - N/A   Clear
6:08 AM 44.6 °F 44.6 °F 100% 30.50 in 10.0 mi Calm Calm - N/A   Clear
6:26 AM 44.6 °F 44.6 °F 100% 30.50 in 10.0 mi Calm Calm - N/A   Clear
6:50 AM 44.6 °F 44.6 °F 100% 30.51 in 10.0 mi Calm Calm - N/A   Scattered Clouds
7:06 AM 44.6 °F 44.6 °F 100% 30.51 in 10.0 mi Calm Calm - N/A   Clear
7:30 AM 46.4 °F 46.4 °F 100% 30.51 in 10.0 mi Calm Calm - N/A   Scattered Clouds
7:50 AM 44.6 °F 44.6 °F 100% 30.51 in 10.0 mi Calm Calm - N/A   Scattered Clouds
8:06 AM 46.4 °F 46.4 °F 100% 30.51 in 10.0 mi Calm Calm - N/A   Clear
8:29 AM 50.0 °F 46.4 °F 87% 30.51 in 10.0 mi Calm Calm - N/A   Clear
8:47 AM 53.6 °F 48.2 °F 82% 30.51 in 10.0 mi Calm Calm - N/A   Clear
9:06 AM 53.6 °F 46.4 °F 77% 30.49 in 10.0 mi Calm Calm - N/A   Clear
9:30 AM 55.4 °F 46.4 °F 72% 30.49 in 10.0 mi Calm Calm - N/A   Clear
9:48 AM 59.0 °F 46.4 °F 63% 30.48 in 10.0 mi Calm Calm - N/A   Clear
10:06 AM 60.8 °F 46.4 °F 59% 30.47 in 10.0 mi Calm Calm - N/A   Clear
10:30 AM 62.6 °F 46.4 °F 55% 30.46 in 10.0 mi Calm Calm - N/A   Clear
10:48 AM 68.0 °F 50.0 °F 52% 30.46 in 10.0 mi ESE 3.5 mph - N/A   Clear
11:06 AM 68.0 °F 50.0 °F 52% 30.44 in 10.0 mi Calm Calm - N/A   Clear
11:29 AM 71.6 °F 50.0 °F 46% 30.43 in 10.0 mi Calm Calm - N/A   Clear
11:46 AM 73.4 °F 46.4 °F 38% 30.41 in 10.0 mi East 3.5 mph - N/A   Clear
12:06 PM 75.2 °F 44.6 °F 34% 30.40 in 10.0 mi Calm Calm - N/A   Clear
12:30 PM 78.8 °F 44.6 °F 30% 30.38 in 10.0 mi Calm Calm - N/A   Clear
12:48 PM 78.8 °F 44.6 °F 30% 30.36 in 10.0 mi Calm Calm - N/A   Clear
1:06 PM 80.6 °F 42.8 °F 26% 30.34 in 10.0 mi WNW 3.5 mph - N/A   Clear
1:29 PM 86.0 °F 41.0 °F 20% 30.33 in 10.0 mi West 4.6 mph - N/A   Clear
1:47 PM 86.0 °F 41.0 °F 20% 30.32 in 10.0 mi WSW 8.1 mph - N/A Thunderstorm Clear
2:06 PM 87.8 °F 37.4 °F 17% 30.31 in 10.0 mi WSW 11.5 mph 23.0 mph N/A   Clear
2:30 PM 82.4 °F 41.0 °F 23% 30.31 in 10.0 mi NNW 11.5 mph 19.6 mph N/A   Scattered Clouds
2:47 PM 75.2 °F 44.6 °F 34% 30.30 in 10.0 mi NNE 15.0 mph 24.2 mph N/A Rain Light Rain
3:11 PM 78.8 °F 41.0 °F 26% 30.29 in 10.0 mi North 10.4 mph 19.6 mph N/A   Scattered Clouds
3:29 PM 75.2 °F 41.0 °F 29% 30.31 in 10.0 mi North 9.2 mph 24.2 mph N/A   Mostly Cloudy
3:47 PM 75.2 °F 42.8 °F 31% 30.30 in 10.0 mi ENE 4.6 mph - N/A   Mostly Cloudy
4:06 PM 75.2 °F 46.4 °F 36% 30.29 in 10.0 mi SE 16.1 mph - N/A   Scattered Clouds
4:29 PM 75.2 °F 44.6 °F 34% 30.30 in 10.0 mi ENE 10.4 mph 16.1 mph N/A Rain Light Rain
4:47 PM 71.6 °F 51.8 °F 50% 30.31 in 10.0 mi ESE 13.8 mph 20.7 mph N/A Rain Light Rain
5:06 PM 73.4 °F 50.0 °F 44% 30.31 in 10.0 mi East 11.5 mph - N/A   Scattered Clouds
5:30 PM 73.4 °F 50.0 °F 44% 30.31 in 10.0 mi ESE 12.7 mph 17.3 mph N/A   Scattered Clouds
5:48 PM 71.6 °F 51.8 °F 50% 30.32 in 10.0 mi East 15.0 mph - N/A   Scattered Clouds
6:06 PM 69.8 °F 46.4 °F 43% 30.33 in 10.0 mi ESE 10.4 mph 27.6 mph N/A   Mostly Cloudy
6:30 PM 68.0 °F 48.2 °F 49% 30.33 in 10.0 mi East 9.2 mph - N/A Thunderstorm Scattered Clouds
6:48 PM 68.0 °F 50.0 °F 52% 30.32 in 10.0 mi ESE 10.4 mph - N/A   Scattered Clouds
7:06 PM 64.4 °F 50.0 °F 59% 30.33 in 10.0 mi ESE 8.1 mph - N/A   Mostly Cloudy
7:30 PM 64.4 °F 50.0 °F 59% 30.34 in 10.0 mi ESE 8.1 mph - N/A   Overcast
7:48 PM 62.6 °F 50.0 °F 63% 30.34 in 10.0 mi ESE 5.8 mph - N/A   Scattered Clouds
8:06 PM 62.6 °F 50.0 °F 63% 30.35 in 10.0 mi SE 5.8 mph - N/A   Mostly Cloudy
8:30 PM 62.6 °F 48.2 °F 59% 30.36 in 10.0 mi East 10.4 mph - N/A   Mostly Cloudy
8:48 PM 62.6 °F 48.2 °F 59% 30.41 in 10.0 mi SSW 13.8 mph 18.4 mph N/A   Mostly Cloudy
9:06 PM 60.8 °F 46.4 °F 59% 30.41 in 10.0 mi South 15.0 mph 21.9 mph N/A Rain Light Rain
9:30 PM 55.4 °F 48.2 °F 77% 30.42 in 10.0 mi SSW 9.2 mph - N/A Thunderstorm Overcast
9:50 PM 53.6 °F 50.0 °F 88% 30.42 in 10.0 mi SE 4.6 mph - N/A   Light Drizzle
10:06 PM 57.2 °F 50.0 °F 77% 30.40 in 10.0 mi ESE 6.9 mph - N/A Thunderstorm Unknown
10:27 PM 55.4 °F 50.0 °F 82% 30.42 in 10.0 mi East 8.1 mph - N/A   Mostly Cloudy
10:45 PM 55.4 °F 50.0 °F 82% 30.42 in 10.0 mi East 4.6 mph - N/A   Mostly Cloudy
11:06 PM 55.4 °F 50.0 °F 82% 30.44 in 10.0 mi SW 8.1 mph - N/A Thunderstorm Overcast
11:30 PM 55.4 °F 51.8 °F 88% 30.45 in 5.0 mi NE 3.5 mph - N/A   Overcast
11:48 PM 55.4 °F 53.6 °F 94% 30.44 in 10.0 mi Calm Calm - N/A Rain Light Rain